N1JFY Weather Reports


time (UTC)temp
F
wind
direction
speed
knots
gust
knots
rain 1hr
in
rain 24hr
in
rain mn
in
humidity
%
barometer
mb
20260502163050 47 195 0.0 11.3 0.00 0.00 0.00 52 1011.9
20260502161603 47 233 0.0 7.8 0.00 0.00 0.00 52 1011.9
20260502160104 47 165 4.3 7.8 0.00 0.00 0.00 48 1011.9
20260502151543 49 246 1.7 10.4 0.00 0.00 0.00 46 1011.9
20260502123040 43 360 0.0 7.0 0.00 0.01 0.00 61 1012.5
20260502121519 42 360 2.6 7.0 0.00 0.01 0.00 64 1012.5
20260502114513 40 360 0.0 0.0 0.00 0.01 0.00 68 1012.1
20260502113009 39 244 0.0 7.0 0.00 0.01 0.00 72 1012.1
20260502111506 37 339 6.1 9.6 0.00 0.01 0.00 73 1011.5
20260502110004 37 360 7.8 11.3 0.00 0.01 0.00 74 1011.3
20260502104504 37 360 7.0 13.0 0.00 0.02 0.00 72 1011.3
20260502103007 36 360 4.3 8.7 0.00 0.02 0.00 74 1011.3
20260502101502 36 360 5.2 11.3 0.00 0.02 0.00 75 1011.3
20260502070039 36 360 9.6 14.8 0.00 0.05 0.00 73 1009.8
20260502064538 36 283 7.0 14.8 0.00 0.08 0.00 73 1009.8
20260502063051 36 260 8.7 13.9 0.00 0.08 0.00 73 1009.5
20260502061531 36 267 7.0 11.3 0.00 0.08 0.00 73 1009.3
20260502060029 36 291 7.0 11.3 0.00 0.08 0.00 73 1009.3
20260502054527 36 360 7.8 12.2 0.00 0.10 0.00 72 1009.2
20260502053025 37 279 7.8 13.9 0.00 0.10 0.00 72 1009.0
20260502051524 37 360 9.6 13.9 0.00 0.10 0.00 71 1008.8
20260502050032 37 360 8.7 17.4 0.00 0.10 0.00 71 1008.8
20260502044518 38 360 7.8 12.2 0.00 0.15 0.00 71 1008.7
20260502043016 38 360 7.0 11.3 0.00 0.15 0.00 71 1008.7
20260502041524 38 360 7.8 12.2 0.00 0.15 0.00 70 1008.7
20260502040013 38 246 7.8 12.2 0.00 0.15 0.00 70 1008.7
20260502034511 39 360 5.2 12.2 0.00 0.20 0.15 69 1008.8
20260502033014 39 279 2.6 13.0 0.00 0.20 0.15 69 1008.7
20260502031503 39 257 6.1 13.9 0.00 0.20 0.15 69 1008.7
20260502030003 40 282 5.2 12.2 0.00 0.20 0.15 68 1008.6
20260502024612 40 265 5.2 15.6 0.00 0.27 0.15 68 1008.6
20260502023059 40 360 9.6 14.8 0.00 0.27 0.15 68 1008.6
20260502021604 40 255 7.0 13.0 0.00 0.27 0.15 69 1008.7
20260502020057 40 360 6.1 11.3 0.00 0.27 0.15 69 1008.6
20260502014556 40 279 7.0 13.9 0.00 0.36 0.15 69 1008.6
20260502013053 41 360 8.7 18.2 0.00 0.36 0.15 69 1008.6
20260502011549 41 273 7.0 11.3 0.00 0.36 0.15 71 1008.5
20260502010052 42 360 7.8 14.8 0.00 0.36 0.15 70 1008.2
20260502004555 42 360 6.1 11.3 0.00 0.46 0.15 71 1008.1
20260502003040 43 360 5.2 13.9 0.00 0.46 0.15 71 1007.9
20260502001538 43 360 8.7 13.0 0.00 0.46 0.15 73 1007.6
20260502000034 43 360 7.0 10.4 0.00 0.46 0.15 74 1007.3
20260501234533 44 360 5.2 12.2 0.00 0.55 0.15 75 1007.0
20260501233031 44 288 7.8 18.2 0.00 0.55 0.15 74 1006.7
20260501231528 44 360 7.8 13.9 0.00 0.55 0.15 73 1006.5
20260501230026 44 360 7.8 15.6 0.00 0.55 0.15 74 1006.4
20260501224523 44 360 7.0 15.6 0.00 0.59 0.15 74 1006.1
20260501223022 45 360 10.4 18.2 0.00 0.59 0.15 73 1006.2
20260501221520 45 360 8.7 13.9 0.00 0.59 0.15 74 1005.9
20260501220017 45 360 7.0 17.4 0.00 0.59 0.15 75 1005.8
20260501214519 45 360 7.0 16.5 0.00 0.63 0.15 76 1005.7
20260501213029 45 360 9.6 16.5 0.00 0.63 0.15 76 1005.6
20260501211514 46 327 13.9 20.9 0.00 0.63 0.15 75 1005.6
20260501210025 45 360 13.0 18.2 0.00 0.63 0.15 75 1005.5
20260501204508 46 360 11.3 18.2 0.00 0.67 0.15 75 1005.2
20260501203006 46 286 11.3 16.5 0.00 0.67 0.15 76 1005.2
20260501201510 47 360 10.4 17.4 0.00 0.67 0.15 75 1005.2
20260501200001 47 288 9.6 15.6 0.00 0.67 0.15 76 1005.0
20260501194601 47 360 13.0 19.1 0.00 0.69 0.15 74 1004.8
20260501193114 47 360 9.6 20.9 0.00 0.69 0.15 75 1004.6
20260501191558 48 360 7.8 14.8 0.00 0.69 0.15 77 1004.7
20260501190129 48 360 11.3 16.5 0.00 0.69 0.15 77 1004.5
20260501184612 47 360 7.8 17.4 0.00 0.71 0.15 79 1004.5
20260501183054 47 360 8.7 14.8 0.00 0.71 0.15 78 1004.3
20260501181554 46 360 13.0 19.1 0.00 0.71 0.15 79 1004.3
20260501180110 47 276 7.0 16.5 0.00 0.71 0.15 81 1004.3
20260501174550 48 323 10.4 16.5 0.00 0.71 0.15 81 1004.1
20260501173050 47 360 8.7 14.8 0.00 0.71 0.15 82 1004.1
20260501171547 47 360 11.3 19.1 0.00 0.71 0.15 82 1003.9